GW4477 Weather Reports


time (UTC)temp
F
wind
direction
speed
knots
gust
knots
rain 1hr
in
rain 24hr
in
rain mn
in
humidity
%
barometer
mb
20260506073003 39 117 2.6 6.1 0.10 0.23 0.23 90 1017.7
20260506071507 39 144 4.3 7.0 0.09 0.20 0.20 90 1017.6
20260506061503 40 130 0.9 5.2 0.09 0.11 0.11 89 1017.8
20260506044504 41 53 0.9 4.3 0.00 0.00 0.00 85 1016.7
20260506043010 41 45 0.9 3.5 0.00 0.00 0.00 84 1017.1
20260506041516 41 109 0.9 6.1 0.00 0.00 0.00 83 1016.7
20260506040019 41 112 2.6 7.0 0.00 0.00 0.00 81 1016.3
20260506034503 42 131 3.5 7.8 0.00 0.00 0.00 78 1016.2
20260506033008 42 156 1.7 8.7 0.00 0.00 0.00 75 1016.3
20260506031514 42 98 3.5 10.4 0.00 0.00 0.00 74 1015.5
20260506030027 42 117 4.3 11.3 0.00 0.00 0.00 74 1015.4
20260506024536 43 82 1.7 8.7 0.00 0.00 0.00 74 1015.0
20260506023003 43 123 3.5 8.7 0.00 0.00 0.00 74 1014.7
20260506021509 43 111 2.6 9.6 0.00 0.00 0.00 72 1014.5
20260506020013 43 106 0.9 8.7 0.00 0.00 0.00 72 1014.5
20260506014521 43 123 1.7 6.1 0.00 0.00 0.00 72 1014.5
20260506013022 44 98 1.7 10.4 0.00 0.00 0.00 71 1014.5
20260506011508 44 113 0.9 8.7 0.00 0.00 0.00 71 1014.3
20260506010012 45 88 1.7 7.8 0.00 0.00 0.00 71 1014.3
20260506004518 45 49 2.6 9.6 0.00 0.00 0.00 70 1014.3
20260506003022 45 32 1.7 7.0 0.00 0.00 0.00 69 1014.3
20260506001532 46 12 2.6 6.1 0.00 0.00 0.00 69 1014.0
20260506000007 46 101 1.7 7.8 0.00 0.00 0.00 68 1014.2
20260505234503 47 360 2.6 9.6 0.00 0.00 0.00 66 1014.3
20260505233003 47 55 1.7 7.0 0.00 0.00 0.00 65 1014.2
20260505231505 48 26 2.6 7.8 0.00 0.00 0.00 64 1014.3
20260505230021 48 54 2.6 7.0 0.00 0.00 0.00 61 1014.3
20260505224528 49 74 1.7 7.0 0.00 0.00 0.00 60 1014.2
20260505223003 49 10 2.6 7.8 0.00 0.00 0.00 59 1013.9
20260505221504 50 131 2.6 7.0 0.00 0.00 0.00 57 1014.0
20260505220007 50 155 1.7 8.7 0.00 0.00 0.00 57 1013.7
20260505214511 51 198 1.7 7.0 0.00 0.00 0.00 56 1013.6
20260505213016 51 117 2.6 7.8 0.00 0.00 0.00 56 1013.6
20260505211504 51 318 2.6 7.8 0.00 0.00 0.00 55 1013.9
20260505210026 52 76 1.7 7.8 0.00 0.00 0.00 54 1014.0
20260505204511 52 45 2.6 10.4 0.00 0.00 0.00 53 1013.8
20260505203019 52 128 1.7 8.7 0.00 0.00 0.00 53 1013.9
20260505201518 53 9 4.3 10.4 0.00 0.00 0.00 52 1013.9
20260505200006 53 9 1.7 9.6 0.00 0.00 0.00 1014.1
20260505194508 54 126 2.6 7.8 0.00 0.00 0.00 51 1014.2
20260505193011 53 112 1.7 9.6 0.00 0.00 0.00 1014.2
20260505191523 54 78 2.6 8.7 0.00 0.00 0.00 51 1014.4
20260505190022 54 37 1.7 6.1 0.00 0.00 0.00 50 1014.3
20260505184508 54 108 2.6 7.8 0.00 0.00 0.00 50 1014.4
20260505183011 54 64 1.7 12.2 0.00 0.00 0.00 50 1014.5
20260505181517 54 349 2.6 11.3 0.00 0.00 0.00 49 1014.6
20260505180039 55 352 2.6 11.3 0.00 0.00 0.00 48 1014.5
20260505174522 56 27 2.6 10.4 0.00 0.00 0.00 47 1014.4
20260505173010 55 352 3.5 10.4 0.00 0.00 0.00 48 1014.6
20260505171516 54 52 4.3 10.4 0.00 0.00 0.00 49 1014.5
20260505170022 53 83 4.3 9.6 0.00 0.00 0.00 50 1014.9
20260505164526 53 131 3.5 10.4 0.00 0.00 0.00 49 1015.0
20260505163028 53 20 2.6 9.6 0.00 0.00 0.00 50 1014.7
20260505161514 53 117 3.5 13.0 0.00 0.00 0.00 50 1014.7
20260505153026 51 76 3.5 9.6 0.00 0.00 0.00 53 1014.8
20260505151526 51 25 3.5 9.6 0.00 0.00 0.00 53 1014.7
20260505124505 48 5 3.5 7.8 0.00 0.00 0.00 61 1013.1
20260505123012 48 82 3.5 8.7 0.00 0.00 0.00 61 1012.7
20260505121506 48 18 1.7 7.0 0.00 0.00 0.00 61 1012.1
20260505120019 48 117 3.5 9.6 0.00 0.00 0.00 60 1011.2
20260505114514 48 30 2.6 7.8 0.00 0.00 0.00 61 1011.1
20260505113004 48 360 1.7 7.8 0.00 0.00 0.00 60 1010.9
20260505111511 49 360 3.5 8.7 0.00 0.00 0.00 58 1010.6
20260505101514 50 13 1.7 8.7 0.00 0.00 0.00 57 1009.6
20260505100021 50 352 3.5 10.4 0.00 0.00 0.00 57 1009.6
20260505094512 51 24 6.1 12.2 0.00 0.00 0.00 56 1009.8
20260505093022 51 105 6.1 13.0 0.00 0.00 0.00 56 1009.5
20260505091521 51 21 4.3 12.2 0.00 0.00 0.00 56 1009.6
20260505090005 51 9 5.2 11.3 0.00 0.00 0.00 55 1009.6
20260505084508 51 42 5.2 9.6 0.00 0.00 0.00 55 1009.5
20260505083018 51 53 6.1 10.4 0.00 0.00 0.00 53 1009.0
20260505081522 51 17 5.2 13.9 0.00 0.00 0.00 53 1008.7
20260505080024 52 348 6.1 14.8 0.00 0.00 0.00 52 1008.1